| time (UTC) | temp F | wind direction | speed MPH | gust MPH | rain 1hr in | rain 24hr in | rain mn in | humidity % | barometer mb |
| 20260901050042 | 82 | 169 | 0.0 | 1.0 | 0.00 | 0.00 | 0.00 | 47 | 1012.9 |
| 20260901044554 | 82 | 169 | 0.0 | 3.0 | 0.00 | 0.00 | 0.00 | 46 | 1012.9 |
| 20260901043041 | 83 | 182 | 0.0 | 3.0 | 0.00 | 0.00 | 0.00 | 45 | 1012.9 |
| 20260901041541 | 84 | 172 | 0.0 | 6.0 | 0.00 | 0.00 | 0.00 | 44 | 1012.9 |
| 20260901040040 | 84 | 175 | 1.0 | 5.0 | 0.00 | 0.00 | 0.00 | 44 | 1012.9 |
| 20260901034540 | 84 | 173 | 2.0 | 4.0 | 0.00 | 0.00 | 0.00 | 44 | 1012.8 |
| 20260901033040 | 85 | 158 | 1.0 | 4.0 | 0.00 | 0.00 | 0.00 | 43 | 1012.7 |
| 20260901031542 | 85 | 173 | 2.0 | 5.0 | 0.00 | 0.00 | 0.00 | 42 | 1012.7 |
| 20260901030048 | 86 | 141 | 2.0 | 6.0 | 0.00 | 0.00 | 0.00 | 41 | 1012.6 |
| 20260901024539 | 86 | 190 | 1.0 | 5.0 | 0.00 | 0.00 | 0.00 | 41 | 1012.4 |
| 20260901023037 | 86 | 168 | 3.0 | 6.0 | 0.00 | 0.00 | 0.00 | 41 | 1012.2 |
| 20260901021537 | 87 | 216 | 2.0 | 4.0 | 0.00 | 0.00 | 0.00 | 41 | 1012.0 |
| 20260901020036 | 87 | 165 | 2.0 | 3.0 | 0.00 | 0.00 | 0.00 | 39 | 1011.7 |
| 20260901014541 | 88 | 172 | 1.0 | 3.0 | 0.00 | 0.00 | 0.00 | 38 | 1011.5 |
| 20260901013036 | 89 | 158 | 2.0 | 5.0 | 0.00 | 0.00 | 0.00 | 36 | 1011.4 |
| 20260901011535 | 90 | 158 | 2.0 | 5.0 | 0.00 | 0.00 | 0.00 | 35 | 1011.3 |
| 20260901010035 | 92 | 203 | 2.0 | 6.0 | 0.00 | 0.00 | 0.00 | 33 | 1011.2 |
| 20260901004538 | 93 | 150 | 2.0 | 6.0 | 0.00 | 0.00 | 0.00 | 32 | 1011.1 |
| 20260901003037 | 95 | 162 | 2.0 | 7.0 | 0.00 | 0.00 | 0.00 | 30 | 1011.0 |
| 20260901001533 | 96 | 161 | 3.0 | 9.0 | 0.00 | 0.00 | 0.00 | 29 | 1011.0 |
| 20260901000032 | 97 | 179 | 3.0 | 9.0 | 0.00 | 0.00 | 0.00 | 29 | 1011.0 |
| 20260831234532 | 97 | 149 | 7.0 | 12.0 | 0.00 | 0.00 | 0.00 | 28 | 1011.0 |
| 20260831233031 | 98 | 172 | 2.0 | 14.0 | 0.00 | 0.00 | 0.00 | 28 | 1010.9 |
| 20260831231530 | 98 | 153 | 5.0 | 13.0 | 0.00 | 0.00 | 0.00 | 28 | 1010.9 |
| 20260831230037 | 99 | 195 | 4.0 | 10.0 | 0.00 | 0.00 | 0.00 | 28 | 1010.9 |
| 20260831224529 | 99 | 162 | 4.0 | 15.0 | 0.00 | 0.00 | 0.00 | 28 | 1010.9 |
| 20260831223028 | 99 | 203 | 3.0 | 12.0 | 0.00 | 0.00 | 0.00 | 28 | 1011.0 |
| 20260831221534 | 100 | 211 | 5.0 | 12.0 | 0.00 | 0.00 | 0.00 | 27 | 1011.0 |
| 20260831220024 | 100 | 161 | 2.0 | 9.0 | 0.00 | 0.00 | 0.00 | 30 | 1011.1 |
| 20260831214539 | 99 | 170 | 4.0 | 12.0 | 0.00 | 0.00 | 0.00 | 29 | 1011.3 |
| 20260831213021 | 97 | 101 | 4.0 | 13.0 | 0.00 | 0.00 | 0.00 | 31 | 1011.3 |
| 20260831211523 | 97 | 148 | 8.0 | 14.0 | 0.00 | 0.00 | 0.00 | 31 | 1011.4 |
| 20260831210021 | 98 | 223 | 7.0 | 16.0 | 0.00 | 0.00 | 0.00 | 30 | 1011.6 |
| 20260831204520 | 99 | 171 | 9.0 | 16.0 | 0.00 | 0.00 | 0.00 | 31 | 1011.7 |
| 20260831203019 | 98 | 145 | 5.0 | 11.0 | 0.00 | 0.00 | 0.00 | 31 | 1011.8 |
| 20260831201527 | 99 | 165 | 7.0 | 14.0 | 0.00 | 0.00 | 0.00 | 30 | 1012.0 |
| 20260831200030 | 98 | 118 | 4.0 | 13.0 | 0.00 | 0.00 | 0.00 | 32 | 1011.9 |
| 20260831194514 | 99 | 153 | 5.0 | 13.0 | 0.00 | 0.00 | 0.00 | 32 | 1012.2 |
| 20260831193013 | 98 | 153 | 5.0 | 12.0 | 0.00 | 0.00 | 0.00 | 33 | 1012.3 |
| 20260831191512 | 98 | 186 | 6.0 | 15.0 | 0.00 | 0.00 | 0.00 | 32 | 1012.5 |
| 20260831190013 | 98 | 132 | 8.0 | 19.0 | 0.00 | 0.00 | 0.00 | 34 | 1012.6 |
| 20260831184516 | 99 | 186 | 9.0 | 13.0 | 0.00 | 0.00 | 0.00 | 32 | 1012.7 |
| 20260831183004 | 97 | 149 | 1.0 | 8.0 | 0.00 | 0.00 | 0.00 | 36 | 1013.0 |